Year,Month,Day,Hour,Minute,Value (Times are PST for temperature in C)
2016,07,25,00,00,18.10
2016,07,25,00,01,18.10
2016,07,25,00,02,18.10
2016,07,25,00,03,18.10
2016,07,25,00,04,18.10
2016,07,25,00,05,18.00
2016,07,25,00,06,18.00
2016,07,25,00,07,18.00
2016,07,25,00,08,18.00
2016,07,25,00,09,18.00
2016,07,25,00,10,17.90
2016,07,25,00,11,17.90
2016,07,25,00,12,17.90
2016,07,25,00,13,17.90
2016,07,25,00,14,17.90
2016,07,25,00,15,17.90
2016,07,25,00,16,17.90
2016,07,25,00,17,17.80
2016,07,25,00,18,17.80
2016,07,25,00,19,17.80
2016,07,25,00,20,17.70
2016,07,25,00,21,17.70
2016,07,25,00,22,17.70
2016,07,25,00,23,17.60
2016,07,25,00,24,17.60
2016,07,25,00,25,17.60
2016,07,25,00,26,17.50
2016,07,25,00,27,17.50
2016,07,25,00,28,17.50
2016,07,25,00,29,17.50
2016,07,25,00,30,17.40
2016,07,25,00,31,17.40
2016,07,25,00,32,17.40
2016,07,25,00,33,17.40
2016,07,25,00,34,17.40
2016,07,25,00,35,17.40
2016,07,25,00,36,17.40
2016,07,25,00,37,17.40
2016,07,25,00,38,17.30
2016,07,25,00,39,17.30
2016,07,25,00,40,17.30
2016,07,25,00,41,17.30
2016,07,25,00,42,17.30
2016,07,25,00,43,17.30
2016,07,25,00,44,17.30
2016,07,25,00,45,17.20
2016,07,25,00,46,17.20
2016,07,25,00,47,17.20
2016,07,25,00,48,17.20
2016,07,25,00,49,17.20
2016,07,25,00,50,17.20
2016,07,25,00,51,17.20
2016,07,25,00,52,17.10
2016,07,25,00,53,17.10
2016,07,25,00,54,17.10
2016,07,25,00,55,17.10
2016,07,25,00,56,17.10
2016,07,25,00,57,17.00
2016,07,25,00,58,17.00
2016,07,25,00,59,17.00
2016,07,25,01,00,16.90
2016,07,25,01,01,16.90
2016,07,25,01,02,16.90
2016,07,25,01,03,16.90
2016,07,25,01,04,16.80
2016,07,25,01,05,16.80
2016,07,25,01,06,16.80
2016,07,25,01,07,16.80
2016,07,25,01,08,16.80
2016,07,25,01,09,16.80
2016,07,25,01,10,16.80
2016,07,25,01,11,16.80
2016,07,25,01,12,16.80
2016,07,25,01,13,16.80
2016,07,25,01,14,16.80
2016,07,25,01,15,16.80
2016,07,25,01,16,16.80
2016,07,25,01,17,16.90
2016,07,25,01,18,16.90
2016,07,25,01,19,16.90
2016,07,25,01,20,16.90
2016,07,25,01,21,16.90
2016,07,25,01,22,16.90
2016,07,25,01,23,16.90
2016,07,25,01,24,16.80
2016,07,25,01,25,16.80
2016,07,25,01,26,16.80
2016,07,25,01,27,16.80
2016,07,25,01,28,16.80
2016,07,25,01,29,16.80
2016,07,25,01,30,16.70
2016,07,25,01,31,16.70
2016,07,25,01,32,16.70
2016,07,25,01,33,16.70
2016,07,25,01,34,16.70
2016,07,25,01,35,16.70
2016,07,25,01,36,16.70
2016,07,25,01,37,16.70
2016,07,25,01,38,16.70
2016,07,25,01,39,16.70
2016,07,25,01,40,16.70
2016,07,25,06,11,15.60
2016,07,25,06,12,15.70
2016,07,25,06,13,15.70
2016,07,25,06,14,15.70
2016,07,25,06,15,15.70
2016,07,25,06,16,15.70
2016,07,25,06,17,15.70
2016,07,25,06,18,15.70
2016,07,25,06,19,15.80
2016,07,25,06,20,15.80
2016,07,25,06,21,15.80
2016,07,25,06,22,15.80
2016,07,25,06,23,15.90
2016,07,25,06,24,15.90
2016,07,25,06,25,15.90
2016,07,25,06,26,15.90
2016,07,25,06,27,16.00
2016,07,25,06,28,16.00
2016,07,25,06,29,16.10
2016,07,25,06,30,16.10
2016,07,25,06,31,16.20
2016,07,25,06,32,16.30
2016,07,25,06,33,16.30
2016,07,25,06,34,16.40
2016,07,25,06,35,16.50
2016,07,25,06,36,16.50
2016,07,25,06,37,16.60
2016,07,25,06,38,16.70
2016,07,25,06,39,16.70
2016,07,25,06,40,16.80
2016,07,25,06,41,16.90
2016,07,25,06,42,17.00
2016,07,25,06,43,17.00
2016,07,25,06,44,17.10
2016,07,25,06,45,17.20
2016,07,25,06,46,17.20
2016,07,25,06,47,17.30
2016,07,25,06,48,17.30
2016,07,25,06,49,17.30
2016,07,25,06,50,17.30
2016,07,25,06,51,17.40
2016,07,25,06,52,17.40
2016,07,25,06,53,17.40
2016,07,25,06,54,17.40
2016,07,25,06,55,17.50
2016,07,25,06,56,17.60
2016,07,25,06,57,17.60
2016,07,25,06,58,17.70
2016,07,25,06,59,17.80
2016,07,25,07,00,17.90
2016,07,25,07,01,17.90
2016,07,25,07,02,18.00
2016,07,25,07,03,18.10
2016,07,25,07,04,18.20
2016,07,25,07,05,18.20
2016,07,25,07,06,18.30
2016,07,25,07,07,18.30
2016,07,25,07,08,18.30
2016,07,25,07,09,18.30
2016,07,25,07,10,18.30
2016,07,25,07,11,18.30
2016,07,25,07,12,18.30
2016,07,25,07,13,18.30
2016,07,25,07,14,18.30
2016,07,25,07,15,18.30
2016,07,25,07,16,18.30
2016,07,25,07,17,18.30
2016,07,25,07,18,18.30
2016,07,25,07,19,18.30
2016,07,25,07,20,18.20
2016,07,25,07,21,18.20
2016,07,25,07,22,18.20
2016,07,25,07,23,18.20
2016,07,25,07,24,18.20
2016,07,25,07,25,18.20
2016,07,25,07,26,18.20
2016,07,25,07,27,18.30
2016,07,25,07,28,18.30
2016,07,25,07,29,18.30
2016,07,25,07,30,18.30
2016,07,25,07,31,18.30
2016,07,25,07,32,18.40
2016,07,25,07,33,18.40
2016,07,25,07,34,18.40
2016,07,25,07,35,18.50
2016,07,25,07,36,18.60
2016,07,25,07,37,18.60
2016,07,25,07,38,18.70
2016,07,25,07,39,18.70
2016,07,25,07,40,18.70
2016,07,25,07,41,18.80
2016,07,25,07,42,18.80
2016,07,25,07,43,18.80
2016,07,25,07,44,18.90
2016,07,25,07,45,18.90
2016,07,25,07,46,18.90
2016,07,25,07,47,18.90
2016,07,25,07,48,18.90
2016,07,25,07,49,18.90
2016,07,25,07,50,18.90
2016,07,25,07,51,19.00
2016,07,25,07,52,19.00
2016,07,25,07,53,19.10
2016,07,25,07,54,19.20
2016,07,25,07,55,19.40
2016,07,25,07,56,19.50
2016,07,25,07,57,19.70
2016,07,25,07,58,19.80
2016,07,25,07,59,19.90
2016,07,25,08,00,20.00
2016,07,25,08,01,20.10
2016,07,25,08,02,20.20
2016,07,25,08,03,20.30
2016,07,25,08,04,20.30
2016,07,25,08,05,20.50
2016,07,25,08,06,20.60
2016,07,25,08,07,20.70
2016,07,25,08,08,20.90
2016,07,25,08,09,21.00
2016,07,25,08,10,21.10
2016,07,25,08,11,21.30
2016,07,25,08,12,21.40
2016,07,25,08,13,21.50
2016,07,25,08,14,21.70
2016,07,25,08,15,21.70
2016,07,25,08,16,21.90
2016,07,25,08,17,21.90
2016,07,25,08,18,22.00
2016,07,25,08,19,22.10
2016,07,25,08,20,22.20
2016,07,25,08,21,22.30
2016,07,25,08,22,22.30
2016,07,25,08,23,22.40
2016,07,25,08,24,22.50
2016,07,25,08,25,22.60
2016,07,25,08,26,22.70
2016,07,25,08,27,22.70
2016,07,25,08,28,22.70
2016,07,25,08,29,22.80
2016,07,25,08,30,22.80
2016,07,25,08,31,22.90
2016,07,25,08,32,22.90
2016,07,25,08,33,23.00
2016,07,25,08,34,23.10
2016,07,25,08,35,23.20
2016,07,25,08,36,23.20
2016,07,25,08,37,23.30
2016,07,25,08,38,23.30
2016,07,25,08,39,23.40
2016,07,25,08,40,23.40
2016,07,25,08,41,23.50
2016,07,25,08,42,23.60
2016,07,25,08,43,23.70
2016,07,25,08,44,23.80
2016,07,25,08,45,23.80
2016,07,25,08,46,23.80
2016,07,25,08,47,23.80
2016,07,25,08,48,23.70
2016,07,25,08,49,23.50
2016,07,25,08,50,23.40
2016,07,25,08,51,23.30
2016,07,25,08,52,23.20
2016,07,25,08,53,23.10
2016,07,25,08,54,23.00
2016,07,25,08,55,22.90
2016,07,25,08,56,22.80
2016,07,25,08,57,22.70
2016,07,25,08,58,22.70
2016,07,25,08,59,22.60
2016,07,25,09,00,22.60
2016,07,25,09,01,22.60
2016,07,25,09,02,22.50
2016,07,25,09,03,22.40
2016,07,25,09,04,22.30
2016,07,25,09,05,22.20
2016,07,25,09,06,22.10
2016,07,25,09,07,22.10
2016,07,25,09,08,22.10
2016,07,25,09,09,22.20
2016,07,25,09,10,22.20
2016,07,25,09,11,22.30
2016,07,25,09,12,22.30
2016,07,25,09,13,22.40
2016,07,25,09,14,22.50
2016,07,25,09,15,22.60
2016,07,25,09,16,22.60
2016,07,25,09,17,22.60
2016,07,25,09,18,22.60
2016,07,25,09,19,22.60
2016,07,25,09,20,22.60
2016,07,25,09,21,22.60
2016,07,25,09,22,22.60
2016,07,25,09,23,22.50
2016,07,25,09,24,22.60
2016,07,25,09,25,22.60
2016,07,25,09,26,22.70
2016,07,25,09,27,22.70
2016,07,25,09,28,22.80
2016,07,25,09,29,22.90
2016,07,25,09,30,22.90
2016,07,25,09,31,23.00
2016,07,25,09,32,23.10
2016,07,25,09,33,23.20
2016,07,25,09,34,23.30
2016,07,25,09,35,23.40
2016,07,25,09,36,23.50
2016,07,25,09,37,23.60
2016,07,25,09,38,23.70
2016,07,25,09,39,23.80
2016,07,25,09,40,23.90
2016,07,25,09,41,24.00
2016,07,25,09,42,24.00
2016,07,25,09,43,24.10
2016,07,25,09,44,24.10
2016,07,25,09,45,24.20
2016,07,25,09,46,24.20
2016,07,25,09,47,24.20
2016,07,25,09,48,24.20
2016,07,25,09,49,24.20
2016,07,25,09,50,24.10
2016,07,25,09,51,24.10
2016,07,25,09,52,24.10
2016,07,25,09,53,24.10
2016,07,25,09,54,24.10
2016,07,25,09,55,24.20
2016,07,25,09,56,24.20
2016,07,25,09,57,24.30
2016,07,25,09,58,24.30
2016,07,25,09,59,24.40
2016,07,25,10,00,24.30
2016,07,25,10,01,24.10
2016,07,25,10,02,24.00
2016,07,25,10,03,23.90
2016,07,25,10,04,23.80
2016,07,25,10,05,23.70
2016,07,25,10,06,23.60
2016,07,25,10,07,23.50
2016,07,25,10,08,23.30
2016,07,25,10,09,23.20
2016,07,25,10,10,23.10
2016,07,25,10,11,23.10
2016,07,25,10,12,23.20
2016,07,25,10,13,23.10
2016,07,25,10,14,22.90
2016,07,25,10,15,22.80
2016,07,25,10,16,22.80
2016,07,25,10,17,22.80
2016,07,25,10,18,22.80
2016,07,25,10,19,22.80
2016,07,25,10,20,22.70
2016,07,25,10,21,22.60
2016,07,25,10,22,22.50
2016,07,25,10,23,22.40
2016,07,25,10,24,22.40
2016,07,25,10,25,22.40
2016,07,25,10,26,22.40
2016,07,25,10,27,22.40
2016,07,25,10,28,22.40
2016,07,25,10,29,22.50
2016,07,25,10,30,22.60
2016,07,25,10,31,22.70
2016,07,25,10,32,22.70
2016,07,25,10,33,22.80
2016,07,25,10,34,22.80
2016,07,25,10,35,22.90
2016,07,25,10,36,22.90
2016,07,25,10,37,23.00
2016,07,25,10,38,23.10
2016,07,25,10,39,23.20
2016,07,25,10,40,23.20
2016,07,25,10,41,23.10
2016,07,25,10,42,23.00
2016,07,25,10,43,23.00
2016,07,25,10,44,23.00
2016,07,25,10,45,23.10
2016,07,25,10,46,23.00
2016,07,25,10,47,23.00
2016,07,25,10,48,23.00
2016,07,25,10,49,22.90
2016,07,25,10,50,22.90
2016,07,25,10,51,23.00
2016,07,25,10,52,23.10
2016,07,25,10,53,23.10
2016,07,25,10,54,23.10
2016,07,25,10,55,23.10
2016,07,25,10,56,23.00
2016,07,25,10,57,23.00
2016,07,25,10,58,22.90
2016,07,25,10,59,22.80
2016,07,25,11,00,22.70
2016,07,25,11,01,22.70
2016,07,25,11,02,22.60
2016,07,25,11,03,22.60
2016,07,25,11,04,22.60
2016,07,25,11,05,22.60
2016,07,25,11,06,22.70
2016,07,25,11,07,22.80
2016,07,25,11,08,22.80
2016,07,25,11,09,22.90
2016,07,25,11,10,23.00
2016,07,25,11,11,23.00
2016,07,25,11,12,23.00
2016,07,25,11,13,23.10
2016,07,25,11,14,23.10
2016,07,25,11,15,23.10
2016,07,25,11,16,23.10
2016,07,25,11,17,23.20
2016,07,25,11,18,23.30
2016,07,25,11,19,23.30
2016,07,25,11,20,23.30
2016,07,25,11,21,23.30
2016,07,25,11,22,23.40
2016,07,25,11,23,23.50
2016,07,25,11,24,23.70
2016,07,25,11,25,23.90
2016,07,25,11,26,23.90
2016,07,25,11,27,23.90
2016,07,25,11,28,24.00
2016,07,25,11,29,24.10
2016,07,25,11,30,24.20
2016,07,25,11,31,24.30
2016,07,25,11,32,24.40
2016,07,25,11,33,24.40
2016,07,25,11,34,24.40
2016,07,25,11,35,24.40
2016,07,25,11,36,24.40
2016,07,25,11,37,24.30
2016,07,25,11,38,24.30
2016,07,25,11,39,24.40
2016,07,25,11,40,24.40
2016,07,25,11,41,24.50
2016,07,25,11,42,24.60
2016,07,25,11,43,24.60
2016,07,25,11,44,24.60
2016,07,25,11,45,24.30
2016,07,25,11,46,24.20
2016,07,25,11,47,24.10
2016,07,25,11,48,24.10
2016,07,25,11,49,24.10
2016,07,25,11,50,24.10
2016,07,25,11,51,24.10
2016,07,25,11,52,24.10
2016,07,25,11,53,24.10
2016,07,25,11,54,24.10
2016,07,25,11,55,24.10
2016,07,25,11,56,24.10
2016,07,25,11,57,24.20
2016,07,25,11,58,24.10
2016,07,25,11,59,24.10
2016,07,25,12,00,24.10
2016,07,25,12,01,24.10
2016,07,25,12,02,24.10
2016,07,25,12,03,24.10
2016,07,25,12,04,24.10
2016,07,25,12,05,24.00
2016,07,25,12,06,24.00
2016,07,25,12,07,24.10
2016,07,25,12,08,24.10
2016,07,25,12,09,24.30
2016,07,25,12,10,24.40
2016,07,25,12,11,24.40
2016,07,25,12,12,24.40
2016,07,25,12,13,24.40
2016,07,25,12,14,24.40
2016,07,25,12,15,24.40
2016,07,25,12,16,24.40
2016,07,25,12,17,24.30
2016,07,25,12,18,24.20
2016,07,25,12,19,24.20
2016,07,25,12,20,24.10
2016,07,25,12,21,23.90
2016,07,25,12,22,23.90
2016,07,25,12,23,23.90
2016,07,25,12,24,23.90
2016,07,25,12,25,23.90
2016,07,25,12,26,23.80
2016,07,25,12,27,23.70
2016,07,25,12,28,23.80
2016,07,25,12,29,23.90
2016,07,25,12,30,24.00
2016,07,25,12,31,24.10
2016,07,25,12,32,24.20
2016,07,25,12,33,24.10
2016,07,25,12,34,24.10
2016,07,25,12,35,23.90
2016,07,25,12,36,23.70
2016,07,25,12,37,23.50
2016,07,25,12,38,23.50
2016,07,25,12,39,23.60
2016,07,25,12,40,23.70
2016,07,25,12,41,23.70
2016,07,25,12,42,23.80
2016,07,25,12,43,23.90
2016,07,25,12,44,23.90
2016,07,25,12,45,23.90
2016,07,25,12,46,23.80
2016,07,25,12,47,23.70
2016,07,25,12,48,23.60
2016,07,25,12,49,23.60
2016,07,25,12,50,23.60
2016,07,25,12,51,23.60
2016,07,25,12,52,23.40
2016,07,25,12,53,23.30
2016,07,25,12,54,23.30
2016,07,25,12,55,23.30
2016,07,25,12,56,23.40
2016,07,25,12,57,23.40
2016,07,25,12,58,23.40
2016,07,25,12,59,23.40
2016,07,25,13,00,23.40
2016,07,25,13,01,23.40
2016,07,25,13,02,23.40
2016,07,25,13,03,23.30
2016,07,25,13,04,23.40
2016,07,25,13,05,23.50
2016,07,25,13,06,23.70
2016,07,25,13,07,23.90
2016,07,25,13,08,24.00
2016,07,25,13,09,24.10
2016,07,25,13,10,24.20
2016,07,25,13,11,24.20
2016,07,25,13,12,24.20
2016,07,25,13,13,24.10
2016,07,25,13,14,24.20
2016,07,25,13,15,24.20
2016,07,25,13,16,24.30
2016,07,25,13,17,24.40
2016,07,25,13,18,24.40
2016,07,25,13,19,24.40
2016,07,25,13,20,24.30
2016,07,25,13,21,24.30
2016,07,25,13,22,24.30
2016,07,25,13,23,24.40
2016,07,25,13,24,24.40
2016,07,25,13,25,24.40
2016,07,25,13,26,24.40
2016,07,25,13,27,24.50
2016,07,25,13,28,24.60
2016,07,25,13,29,24.70
2016,07,25,13,30,24.60
2016,07,25,13,31,24.60
2016,07,25,13,32,24.60
2016,07,25,13,33,24.60
2016,07,25,13,34,24.60
2016,07,25,13,35,24.60
2016,07,25,13,36,24.80
2016,07,25,13,37,24.80
2016,07,25,13,38,24.70
2016,07,25,13,39,24.80
2016,07,25,13,40,24.80
2016,07,25,13,41,24.70
2016,07,25,13,42,24.70
2016,07,25,13,43,24.60
2016,07,25,13,44,24.60
2016,07,25,13,45,24.60
2016,07,25,13,46,24.70
2016,07,25,13,47,24.80
2016,07,25,13,48,24.90
2016,07,25,13,49,25.10
2016,07,25,13,50,25.10
2016,07,25,13,51,25.10
2016,07,25,13,52,25.10
2016,07,25,13,53,25.10
2016,07,25,13,54,25.00
2016,07,25,13,55,24.90
2016,07,25,13,56,24.90
2016,07,25,13,57,24.70
2016,07,25,13,58,24.80
2016,07,25,13,59,24.70
2016,07,25,14,00,24.70
2016,07,25,14,01,24.70
2016,07,25,14,02,24.70
2016,07,25,14,03,24.70
2016,07,25,14,04,24.70
2016,07,25,14,05,24.80
2016,07,25,14,06,24.90
2016,07,25,14,07,24.90
2016,07,25,14,08,24.90
2016,07,25,14,09,24.90
2016,07,25,14,10,25.00
2016,07,25,14,11,25.00
2016,07,25,14,12,24.90
2016,07,25,14,13,24.80
2016,07,25,14,14,24.80
2016,07,25,14,15,24.80
2016,07,25,14,16,24.80
2016,07,25,14,17,24.70
2016,07,25,14,18,24.70
2016,07,25,14,19,24.80
2016,07,25,14,20,24.80
2016,07,25,14,21,24.80
2016,07,25,14,22,24.80
2016,07,25,14,23,24.70
2016,07,25,14,24,24.80
2016,07,25,14,25,24.90
2016,07,25,14,26,25.00
2016,07,25,14,27,25.00
2016,07,25,14,28,25.00
2016,07,25,14,29,25.00
2016,07,25,14,30,25.00
2016,07,25,14,31,24.90
2016,07,25,14,32,24.90
2016,07,25,14,33,25.10
2016,07,25,14,34,25.30
2016,07,25,14,35,25.40
2016,07,25,14,36,25.30
2016,07,25,14,37,25.20
2016,07,25,14,38,25.10
2016,07,25,14,39,25.10
2016,07,25,14,40,25.20
2016,07,25,14,41,25.20
2016,07,25,14,42,25.10
2016,07,25,14,43,25.20
2016,07,25,14,44,25.40
2016,07,25,14,45,25.50
2016,07,25,14,46,25.60
2016,07,25,14,47,25.60
2016,07,25,14,48,25.60
2016,07,25,14,49,25.50
2016,07,25,14,50,25.40
2016,07,25,14,51,25.40
2016,07,25,14,52,25.30
2016,07,25,14,53,25.30
2016,07,25,14,54,25.20
2016,07,25,14,55,25.40
2016,07,25,14,56,25.60
2016,07,25,14,57,25.70
2016,07,25,14,58,25.70
2016,07,25,14,59,25.70
2016,07,25,15,00,25.80
2016,07,25,15,01,25.90
2016,07,25,15,02,25.90
2016,07,25,15,03,25.90
2016,07,25,15,04,25.90
2016,07,25,15,05,25.90
2016,07,25,15,06,25.90
2016,07,25,15,07,26.00
2016,07,25,15,08,26.10
2016,07,25,15,09,26.20
2016,07,25,15,10,26.30
2016,07,25,15,11,26.20
2016,07,25,15,12,26.20
2016,07,25,15,13,26.30
2016,07,25,15,14,26.40
2016,07,25,15,15,26.40
2016,07,25,15,16,26.30
2016,07,25,15,17,26.30
2016,07,25,15,18,26.20
2016,07,25,15,19,26.20
2016,07,25,15,20,26.10
2016,07,25,15,21,26.10
2016,07,25,15,22,26.10
2016,07,25,15,23,26.20
2016,07,25,15,24,26.40
2016,07,25,15,25,26.60
2016,07,25,15,26,26.60
2016,07,25,15,27,26.80
2016,07,25,15,28,26.90
2016,07,25,15,29,27.00
2016,07,25,15,30,27.00
2016,07,25,15,31,27.20
2016,07,25,15,32,27.20
2016,07,25,15,33,27.30
2016,07,25,15,34,27.40
2016,07,25,15,35,27.40
2016,07,25,15,36,27.40
2016,07,25,15,37,27.50
2016,07,25,15,38,27.60
2016,07,25,15,39,27.60
2016,07,25,15,40,27.60
2016,07,25,15,41,27.60
2016,07,25,15,42,27.60
2016,07,25,15,43,27.50
2016,07,25,15,44,27.40
2016,07,25,15,45,27.40
2016,07,25,15,46,27.40
2016,07,25,15,47,27.50
2016,07,25,15,48,27.60
2016,07,25,15,49,27.60
2016,07,25,15,50,27.70
2016,07,25,15,51,27.70
2016,07,25,15,52,27.70
2016,07,25,15,53,27.70
2016,07,25,15,54,27.70
2016,07,25,15,55,27.80
2016,07,25,15,56,27.80
2016,07,25,15,57,27.80
2016,07,25,15,58,27.80
2016,07,25,15,59,27.80
2016,07,25,16,00,27.80
2016,07,25,16,01,27.80
2016,07,25,16,02,27.80
2016,07,25,16,03,27.80
2016,07,25,16,04,27.80
2016,07,25,16,05,27.80
2016,07,25,16,06,27.80
2016,07,25,16,07,27.60
2016,07,25,16,08,27.40
2016,07,25,16,09,27.20
2016,07,25,16,10,27.00
2016,07,25,16,11,26.90
2016,07,25,16,12,26.90
2016,07,25,16,13,27.00
2016,07,25,16,14,27.00
2016,07,25,16,15,26.90
2016,07,25,16,16,26.90
2016,07,25,16,17,26.80
2016,07,25,16,18,26.80
2016,07,25,16,19,26.80
2016,07,25,16,20,26.80
2016,07,25,16,21,26.80
2016,07,25,16,22,26.80
2016,07,25,16,23,26.80
2016,07,25,16,24,26.70
2016,07,25,16,25,26.70
2016,07,25,16,26,26.80
2016,07,25,16,27,26.80
2016,07,25,16,28,26.80
2016,07,25,16,29,26.90
2016,07,25,16,30,26.90
2016,07,25,16,31,26.90
2016,07,25,16,32,26.90
2016,07,25,16,33,26.80
2016,07,25,16,34,26.60
2016,07,25,16,35,26.40
2016,07,25,16,36,26.30
2016,07,25,16,37,26.20
2016,07,25,16,38,26.10
2016,07,25,16,39,25.90
2016,07,25,16,40,25.90
2016,07,25,16,41,26.00
2016,07,25,16,42,26.00
2016,07,25,16,43,26.10
2016,07,25,16,44,26.20
2016,07,25,16,45,26.20
2016,07,25,16,46,26.20
2016,07,25,16,47,26.20
2016,07,25,16,48,26.10
2016,07,25,16,49,26.10
2016,07,25,16,50,26.00
2016,07,25,16,51,25.90
2016,07,25,16,52,25.90
2016,07,25,16,53,25.80
2016,07,25,16,54,25.80
2016,07,25,16,55,25.80
2016,07,25,16,56,25.80
2016,07,25,16,57,25.80
2016,07,25,16,58,25.80
2016,07,25,16,59,25.80
2016,07,25,17,00,25.80
2016,07,25,17,01,25.70
2016,07,25,17,02,25.70
2016,07,25,17,03,25.70
2016,07,25,17,04,25.70
2016,07,25,17,05,25.70
2016,07,25,17,06,25.60
2016,07,25,17,07,25.50
2016,07,25,17,08,25.30
2016,07,25,17,09,25.10
2016,07,25,17,10,25.00
2016,07,25,17,11,25.00
2016,07,25,17,12,24.90
2016,07,25,17,13,24.90
2016,07,25,17,14,24.90
2016,07,25,17,15,24.90
2016,07,25,17,16,25.00
2016,07,25,17,17,25.10
2016,07,25,17,18,25.20
2016,07,25,17,19,25.30
2016,07,25,17,20,25.30
2016,07,25,17,21,25.30
2016,07,25,17,22,25.30
2016,07,25,17,23,25.40
2016,07,25,17,24,25.40
2016,07,25,17,25,25.40
2016,07,25,17,26,25.40
2016,07,25,17,27,25.50
2016,07,25,17,28,25.70
2016,07,25,17,29,25.70
2016,07,25,17,30,25.60
2016,07,25,17,31,25.50
2016,07,25,17,32,25.50
2016,07,25,17,33,25.40
2016,07,25,17,34,25.40
2016,07,25,17,35,25.30
2016,07,25,17,36,25.20
2016,07,25,17,37,25.10
2016,07,25,17,38,25.10
2016,07,25,17,39,25.20
2016,07,25,17,40,25.30
2016,07,25,17,41,25.20
2016,07,25,17,42,25.10
2016,07,25,17,43,25.10
2016,07,25,17,44,25.10
2016,07,25,17,45,25.00
2016,07,25,17,46,24.90
2016,07,25,17,47,24.80
2016,07,25,17,48,24.80
2016,07,25,17,49,24.80
2016,07,25,17,50,24.80
2016,07,25,17,51,24.80
2016,07,25,17,52,24.70
2016,07,25,17,53,24.70
2016,07,25,17,54,24.80
2016,07,25,17,55,24.80
2016,07,25,17,56,24.70
2016,07,25,17,57,24.60
2016,07,25,17,58,24.50
2016,07,25,17,59,24.40
2016,07,25,18,00,24.40
2016,07,25,18,01,24.40
2016,07,25,18,02,24.40
2016,07,25,18,03,24.40
2016,07,25,18,04,24.30
2016,07,25,18,05,24.30
2016,07,25,18,06,24.40
2016,07,25,18,07,24.40
2016,07,25,18,08,24.40
2016,07,25,18,09,24.40
2016,07,25,18,10,24.50
2016,07,25,18,11,24.60
2016,07,25,18,12,24.70
2016,07,25,18,13,24.70
2016,07,25,18,14,24.70
2016,07,25,18,15,24.70
2016,07,25,18,16,24.70
2016,07,25,18,17,24.80
2016,07,25,18,18,24.80
2016,07,25,18,19,24.90
2016,07,25,18,20,25.00
2016,07,25,18,21,25.00
2016,07,25,18,22,25.10
2016,07,25,18,23,25.20
2016,07,25,18,24,25.30
2016,07,25,18,25,25.20
2016,07,25,18,26,25.20
2016,07,25,18,27,25.10
2016,07,25,18,28,25.00
2016,07,25,18,29,24.90
2016,07,25,18,30,24.80
2016,07,25,18,31,24.80
2016,07,25,18,32,24.80
2016,07,25,18,33,24.80
2016,07,25,18,34,24.90
2016,07,25,18,35,24.90
2016,07,25,18,36,24.90
2016,07,25,18,37,25.00
2016,07,25,18,38,25.00
2016,07,25,18,39,24.90
2016,07,25,18,40,24.90
2016,07,25,18,41,24.90
2016,07,25,18,42,24.80
2016,07,25,18,43,24.80
2016,07,25,18,44,24.80
2016,07,25,18,45,24.90
2016,07,25,18,46,24.90
2016,07,25,18,47,24.80
2016,07,25,18,48,24.80
2016,07,25,18,49,24.70
2016,07,25,18,50,24.60
2016,07,25,18,51,24.60
2016,07,25,18,52,24.60
2016,07,25,18,53,24.50
2016,07,25,18,54,24.50
2016,07,25,18,55,24.50
2016,07,25,18,56,24.40
2016,07,25,18,57,24.40
2016,07,25,18,58,24.40
2016,07,25,18,59,24.40
2016,07,25,19,00,24.40
2016,07,25,19,01,24.40
2016,07,25,19,02,24.40
2016,07,25,19,03,24.40
2016,07,25,19,04,24.40
2016,07,25,19,05,24.30
2016,07,25,19,06,24.30
2016,07,25,19,07,24.30
2016,07,25,19,08,24.20
2016,07,25,19,09,24.10
2016,07,25,19,10,24.10
2016,07,25,19,11,24.00
2016,07,25,19,12,23.90
2016,07,25,19,13,23.90
2016,07,25,19,14,23.80
2016,07,25,19,15,23.80
2016,07,25,19,16,23.70
2016,07,25,19,17,23.70
2016,07,25,19,18,23.70
2016,07,25,19,19,23.70
2016,07,25,19,20,23.60
2016,07,25,19,21,23.60
2016,07,25,19,22,23.60
2016,07,25,19,23,23.60
2016,07,25,19,24,23.60
2016,07,25,19,25,23.70
2016,07,25,19,26,23.70
2016,07,25,19,27,23.70
2016,07,25,19,28,23.80
2016,07,25,19,29,23.80
2016,07,25,19,30,23.80
2016,07,25,19,31,23.80
2016,07,25,19,32,23.80
2016,07,25,19,33,23.80
2016,07,25,19,34,23.80
2016,07,25,19,35,23.80
2016,07,25,19,36,23.80
2016,07,25,19,37,23.70
2016,07,25,19,38,23.70
2016,07,25,19,39,23.70
2016,07,25,19,40,23.70
2016,07,25,19,41,23.60
2016,07,25,19,42,23.60
2016,07,25,19,43,23.50
2016,07,25,19,44,23.50
2016,07,25,19,45,23.50
2016,07,25,19,46,23.50
2016,07,25,19,47,23.50
2016,07,25,19,48,23.50
2016,07,25,19,49,23.50
2016,07,25,19,50,23.50
2016,07,25,19,51,23.60
2016,07,25,19,52,23.60
2016,07,25,19,53,23.60
2016,07,25,19,54,23.60
2016,07,25,19,55,23.60
2016,07,25,19,56,23.60
2016,07,25,19,57,23.50
2016,07,25,19,58,23.50
2016,07,25,19,59,23.50
2016,07,25,20,00,23.50
2016,07,25,20,01,23.40
2016,07,25,20,02,23.40
2016,07,25,20,03,23.50
2016,07,25,20,04,23.50
2016,07,25,20,05,23.50
2016,07,25,20,06,23.60
2016,07,25,20,07,23.60
2016,07,25,20,08,23.50
2016,07,25,20,09,23.60
2016,07,25,20,10,23.60
2016,07,25,20,11,23.60
2016,07,25,20,12,23.60
2016,07,25,20,13,23.50
2016,07,25,20,14,23.50
2016,07,25,20,15,23.50
2016,07,25,20,16,23.50
2016,07,25,20,17,23.40
2016,07,25,20,18,23.40
2016,07,25,20,19,23.30
2016,07,25,20,20,23.20
2016,07,25,20,21,23.20
2016,07,25,20,22,23.10
2016,07,25,20,23,23.00
2016,07,25,20,24,22.90
2016,07,25,20,25,22.80
2016,07,25,20,26,22.80
2016,07,25,20,27,22.70
2016,07,25,20,28,22.60
2016,07,25,20,29,22.50
2016,07,25,20,30,22.40
2016,07,25,20,31,22.30
2016,07,25,20,32,22.30
2016,07,25,20,33,22.20
2016,07,25,20,34,22.10
2016,07,25,20,35,22.10
2016,07,25,20,36,22.00
2016,07,25,20,37,22.00
2016,07,25,20,38,21.90
2016,07,25,20,39,21.80
2016,07,25,20,40,21.80
2016,07,25,20,41,21.70
2016,07,25,20,42,21.70
2016,07,25,20,43,21.60
2016,07,25,20,44,21.60
2016,07,25,20,45,21.60
2016,07,25,20,46,21.50
2016,07,25,20,47,21.40
2016,07,25,20,48,21.40
2016,07,25,20,49,21.40
2016,07,25,20,50,21.40
2016,07,25,20,51,21.30
2016,07,25,20,52,21.30
2016,07,25,20,53,21.30
2016,07,25,20,54,21.30
2016,07,25,20,55,21.30
2016,07,25,20,56,21.30
2016,07,25,20,57,21.30
2016,07,25,20,58,21.20
2016,07,25,20,59,21.20
2016,07,25,21,00,21.20
2016,07,25,21,01,21.20
2016,07,25,21,02,21.20
2016,07,25,21,03,21.20
2016,07,25,21,04,21.20
2016,07,25,21,05,21.20
2016,07,25,21,06,21.20
2016,07,25,21,07,21.20
2016,07,25,21,08,21.20
2016,07,25,21,09,21.20
2016,07,25,21,10,21.20
2016,07,25,21,11,21.20
2016,07,25,21,12,21.10
2016,07,25,21,13,21.10
2016,07,25,21,14,21.10
2016,07,25,21,15,21.10
2016,07,25,21,16,21.10
2016,07,25,21,17,21.10
2016,07,25,21,18,21.10
2016,07,25,21,19,21.10
2016,07,25,21,20,21.10
2016,07,25,21,21,21.10
2016,07,25,21,22,21.10
2016,07,25,21,23,21.10
2016,07,25,21,24,21.10
2016,07,25,21,25,21.10
2016,07,25,21,26,21.00
2016,07,25,21,27,21.00
2016,07,25,21,28,21.00
2016,07,25,21,29,20.90
2016,07,25,21,30,20.90
2016,07,25,21,31,20.90
2016,07,25,21,32,20.90
2016,07,25,21,33,20.90
2016,07,25,21,34,20.80
2016,07,25,21,35,20.80
2016,07,25,21,36,20.80
2016,07,25,21,37,20.80
2016,07,25,21,38,20.80
2016,07,25,21,39,20.70
2016,07,25,21,40,20.70
2016,07,25,21,41,20.70
2016,07,25,21,42,20.70
2016,07,25,21,43,20.70
2016,07,25,21,44,20.70
2016,07,25,21,45,20.60
2016,07,25,21,46,20.60
2016,07,25,21,47,20.60
2016,07,25,21,48,20.60
2016,07,25,21,49,20.50